| time (UTC) | temp F | wind direction | speed MPH | gust MPH | rain 1hr in | rain 24hr in | rain mn in | humidity % | barometer mb |
| 20260506194602 | 50 | 298 | 0.0 | 1.0 | 0.00 | 0.01 | 0.01 | 77 | 1013.0 |
| 20260506194106 | 50 | 305 | 0.0 | 2.0 | 0.00 | 0.01 | 0.01 | 77 | 1013.0 |
| 20260506193602 | 51 | 305 | 0.0 | 2.0 | 0.00 | 0.01 | 0.01 | 77 | 1012.8 |
| 20260506193104 | 51 | 297 | 0.0 | 2.0 | 0.00 | 0.01 | 0.01 | 76 | 1013.1 |
| 20260506192604 | 51 | 283 | 0.0 | 2.0 | 0.00 | 0.01 | 0.01 | 76 | 1012.9 |
| 20260506192109 | 51 | 302 | 0.0 | 2.0 | 0.00 | 0.01 | 0.01 | 76 | 1012.8 |
| 20260506191603 | 51 | 311 | 0.0 | 3.0 | 0.00 | 0.01 | 0.01 | 76 | 1012.7 |
| 20260506191103 | 51 | 81 | 1.0 | 3.0 | 0.00 | 0.01 | 0.01 | 76 | 1012.6 |
| 20260506190603 | 51 | 289 | 0.0 | 2.0 | 0.00 | 0.01 | 0.01 | 77 | 1012.7 |
| 20260506190101 | 51 | 269 | 0.0 | 2.0 | 0.00 | 0.01 | 0.01 | 77 | 1012.5 |
| 20260506185601 | 51 | 313 | 0.0 | 2.0 | 0.00 | 0.01 | 0.01 | 77 | 1012.6 |
| 20260506185105 | 51 | 259 | 1.0 | 2.0 | 0.00 | 0.01 | 0.01 | 78 | 1012.7 |
| 20260506184601 | 51 | 288 | 1.0 | 2.0 | 0.00 | 0.01 | 0.01 | 78 | 1012.4 |
| 20260506184101 | 51 | 284 | 0.0 | 1.0 | 0.00 | 0.01 | 0.01 | 79 | 1012.4 |
| 20260506183827 | 51 | 309 | 1.0 | 2.0 | 0.00 | 0.01 | 0.01 | 79 | 1012.3 |
| 20260506183101 | 51 | 343 | 1.0 | 2.0 | 0.00 | 0.01 | 0.01 | 79 | 1012.4 |
| 20260506182600 | 51 | 309 | 0.0 | 1.0 | 0.00 | 0.01 | 0.01 | 79 | 1012.4 |
| 20260506182101 | 51 | 293 | 0.0 | 2.0 | 0.00 | 0.01 | 0.01 | 79 | 1012.3 |
| 20260506181600 | 51 | 317 | 0.0 | 2.0 | 0.00 | 0.01 | 0.01 | 79 | 1012.3 |
| 20260506181323 | 51 | 304 | 0.0 | 2.0 | 0.00 | 0.01 | 0.01 | 79 | 1012.3 |
| 20260506180601 | 51 | 298 | 0.0 | 2.0 | 0.00 | 0.01 | 0.01 | 79 | 1012.0 |
| 20260506175601 | 51 | 299 | 0.0 | 2.0 | 0.00 | 0.01 | 0.01 | 78 | 1012.0 |
| 20260506175328 | 51 | 299 | 1.0 | 3.0 | 0.00 | 0.01 | 0.01 | 78 | 1011.8 |
| 20260506174600 | 51 | 276 | 0.0 | 4.0 | 0.00 | 0.01 | 0.01 | 78 | 1011.8 |
| 20260506174101 | 51 | 305 | 0.0 | 4.0 | 0.00 | 0.01 | 0.01 | 78 | 1011.9 |
| 20260506173606 | 51 | 314 | 1.0 | 7.0 | 0.00 | 0.01 | 0.01 | 78 | 1011.7 |
| 20260506173602 | 51 | 327 | 2.0 | 6.0 | 0.00 | 0.01 | 0.01 | 78 | 1011.8 |
| 20260506172601 | 51 | 12 | 3.0 | 7.0 | 0.00 | 0.01 | 0.01 | 79 | 1011.7 |
| 20260506172101 | 51 | 346 | 2.0 | 4.0 | 0.00 | 0.01 | 0.01 | 79 | 1011.6 |
| 20260506171600 | 51 | 300 | 0.0 | 4.0 | 0.00 | 0.01 | 0.01 | 80 | 1011.7 |
| 20260506171101 | 51 | 5 | 1.0 | 4.0 | 0.00 | 0.01 | 0.01 | 80 | 1011.5 |
| 20260506170832 | 51 | 343 | 0.0 | 7.0 | 0.00 | 0.01 | 0.01 | 80 | 1011.5 |
| 20260506170108 | 51 | 128 | 1.0 | 7.0 | 0.00 | 0.01 | 0.01 | 80 | 1011.3 |
| 20260506165604 | 51 | 312 | 1.0 | 3.0 | 0.00 | 0.01 | 0.01 | 80 | 1011.5 |
| 20260506165102 | 51 | 57 | 2.0 | 6.0 | 0.00 | 0.01 | 0.01 | 80 | 1011.4 |
| 20260506164600 | 52 | 10 | 1.0 | 6.0 | 0.00 | 0.01 | 0.01 | 79 | 1011.3 |
| 20260506164103 | 52 | 67 | 2.0 | 6.0 | 0.00 | 0.01 | 0.01 | 79 | 1011.5 |
| 20260506163602 | 51 | 326 | 1.0 | 7.0 | 0.00 | 0.01 | 0.01 | 80 | 1011.3 |
| 20260506163101 | 51 | 335 | 2.0 | 7.0 | 0.00 | 0.01 | 0.01 | 79 | 1011.2 |
| 20260506162600 | 51 | 17 | 2.0 | 8.0 | 0.00 | 0.01 | 0.01 | 79 | 1011.4 |
| 20260506162102 | 51 | 43 | 4.0 | 8.0 | 0.00 | 0.01 | 0.01 | 79 | 1011.3 |
| 20260506161602 | 51 | 256 | 0.0 | 7.0 | 0.00 | 0.01 | 0.01 | 80 | 1011.3 |
| 20260506161333 | 51 | 289 | 1.0 | 7.0 | 0.00 | 0.01 | 0.01 | 80 | 1011.3 |
| 20260506160831 | 51 | 348 | 2.0 | 7.0 | 0.00 | 0.01 | 0.01 | 79 | 1011.3 |
| 20260506155601 | 51 | 310 | 4.0 | 8.0 | 0.00 | 0.01 | 0.01 | 78 | 1011.3 |
| 20260506155100 | 52 | 277 | 2.0 | 8.0 | 0.00 | 0.01 | 0.01 | 78 | 1011.2 |
| 20260506154603 | 52 | 272 | 4.0 | 8.0 | 0.00 | 0.01 | 0.01 | 77 | 1011.3 |
| 20260506154102 | 52 | 264 | 0.0 | 8.0 | 0.00 | 0.01 | 0.01 | 77 | 1011.3 |
| 20260506153602 | 52 | 275 | 0.0 | 8.0 | 0.00 | 0.01 | 0.01 | 76 | 1011.1 |
| 20260506153102 | 52 | 36 | 3.0 | 4.0 | 0.00 | 0.01 | 0.01 | 74 | 1011.1 |
| 20260506152601 | 52 | 266 | 0.0 | 4.0 | 0.00 | 0.01 | 0.01 | 74 | 1011.1 |
| 20260506152102 | 53 | 286 | 1.0 | 3.0 | 0.00 | 0.01 | 0.01 | 73 | 1011.1 |
| 20260506151603 | 53 | 283 | 0.0 | 6.0 | 0.00 | 0.01 | 0.01 | 72 | 1011.1 |
| 20260506151102 | 53 | 45 | 2.0 | 8.0 | 0.00 | 0.01 | 0.01 | 72 | 1010.9 |
| 20260506150602 | 53 | 25 | 2.0 | 8.0 | 0.00 | 0.01 | 0.01 | 72 | 1011.2 |
| 20260506150101 | 53 | 241 | 0.0 | 6.0 | 0.00 | 0.01 | 0.01 | 72 | 1011.0 |
| 20260506145601 | 53 | 11 | 1.0 | 7.0 | 0.00 | 0.01 | 0.01 | 71 | 1011.1 |
| 20260506145100 | 53 | 39 | 5.0 | 7.0 | 0.00 | 0.01 | 0.01 | 71 | 1011.0 |
| 20260506144602 | 53 | 310 | 2.0 | 6.0 | 0.00 | 0.01 | 0.01 | 70 | 1011.1 |
| 20260506144101 | 53 | 300 | 2.0 | 4.0 | 0.00 | 0.01 | 0.01 | 70 | 1011.0 |
| 20260506143600 | 53 | 313 | 0.0 | 4.0 | 0.00 | 0.01 | 0.01 | 70 | 1010.9 |
| 20260506143337 | 53 | 267 | 2.0 | 6.0 | 0.00 | 0.01 | 0.01 | 70 | 1011.0 |
| 20260506142602 | 53 | 258 | 1.0 | 7.0 | 0.00 | 0.01 | 0.01 | 70 | 1010.9 |
| 20260506142103 | 53 | 253 | 3.0 | 8.0 | 0.00 | 0.01 | 0.01 | 68 | 1010.9 |
| 20260506141602 | 53 | 20 | 5.0 | 8.0 | 0.00 | 0.01 | 0.01 | 67 | 1010.9 |
| 20260506141102 | 54 | 278 | 0.0 | 7.0 | 0.00 | 0.01 | 0.01 | 68 | 1010.9 |
| 20260506140829 | 54 | 263 | 2.0 | 7.0 | 0.00 | 0.01 | 0.01 | 66 | 1010.8 |
| 20260506135600 | 54 | 5 | 3.0 | 9.0 | 0.00 | 0.01 | 0.01 | 66 | 1011.0 |
| 20260506135108 | 54 | 296 | 1.0 | 9.0 | 0.00 | 0.01 | 0.01 | 65 | 1010.9 |
| 20260506134606 | 55 | 278 | 3.0 | 6.0 | 0.00 | 0.01 | 0.01 | 64 | 1010.9 |
| 20260506134106 | 54 | 266 | 2.0 | 6.0 | 0.00 | 0.01 | 0.01 | 66 | 1010.7 |
| 20260506134101 | 55 | 322 | 2.0 | 6.0 | 0.00 | 0.01 | 0.01 | 65 | 1010.7 |
| 20260506133100 | 54 | 143 | 4.0 | 8.0 | 0.00 | 0.01 | 0.01 | 65 | 1010.8 |
| 20260506132603 | 55 | 279 | 4.0 | 8.0 | 0.00 | 0.01 | 0.01 | 65 | 1010.9 |
| 20260506132103 | 54 | 266 | 1.0 | 7.0 | 0.00 | 0.01 | 0.01 | 66 | 1010.8 |
| 20260506131603 | 54 | 352 | 3.0 | 7.0 | 0.00 | 0.01 | 0.01 | 66 | 1010.8 |
| 20260506131102 | 55 | 52 | 3.0 | 8.0 | 0.00 | 0.01 | 0.01 | 66 | 1010.7 |
| 20260506130602 | 55 | 21 | 2.0 | 8.0 | 0.00 | 0.01 | 0.01 | 67 | 1010.6 |
| 20260506125603 | 54 | 70 | 2.0 | 9.0 | 0.00 | 0.01 | 0.01 | 67 | 1010.7 |
| 20260506125054 | 54 | 286 | 2.0 | 8.0 | 0.00 | 0.01 | 0.01 | 67 | 1010.6 |
| 20260506124557 | 53 | 322 | 2.0 | 8.0 | 0.00 | 0.01 | 0.01 | 68 | 1010.6 |
| 20260506124053 | 53 | 274 | 0.0 | 9.0 | 0.00 | 0.01 | 0.01 | 69 | 1010.6 |
| 20260506123555 | 53 | 16 | 1.0 | 9.0 | 0.00 | 0.01 | 0.01 | 68 | 1010.5 |
| 20260506123323 | 53 | 355 | 1.0 | 6.0 | 0.00 | 0.01 | 0.01 | 69 | 1010.7 |
| 20260506122552 | 53 | 185 | 1.0 | 8.0 | 0.00 | 0.01 | 0.01 | 69 | 1010.5 |
| 20260506122053 | 53 | 10 | 4.0 | 8.0 | 0.00 | 0.01 | 0.01 | 69 | 1010.7 |
| 20260506121553 | 53 | 125 | 1.0 | 7.0 | 0.00 | 0.01 | 0.01 | 70 | 1010.5 |
| 20260506121325 | 53 | 297 | 2.0 | 8.0 | 0.00 | 0.01 | 0.01 | 70 | 1010.7 |
| 20260506120553 | 53 | 357 | 3.0 | 8.0 | 0.00 | 0.01 | 0.01 | 70 | 1010.6 |
| 20260506120324 | 53 | 76 | 1.0 | 7.0 | 0.00 | 0.01 | 0.01 | 70 | 1010.5 |
| 20260506115553 | 53 | 323 | 0.0 | 7.0 | 0.00 | 0.01 | 0.01 | 70 | 1010.5 |
| 20260506115053 | 53 | 258 | 1.0 | 9.0 | 0.00 | 0.01 | 0.01 | 69 | 1010.4 |
| 20260506114554 | 53 | 9 | 4.0 | 9.0 | 0.00 | 0.01 | 0.01 | 68 | 1010.3 |
| 20260506114053 | 54 | 335 | 3.0 | 8.0 | 0.00 | 0.01 | 0.01 | 68 | 1010.3 |
| 20260506113823 | 54 | 286 | 2.0 | 8.0 | 0.00 | 0.01 | 0.01 | 69 | 1010.2 |
| 20260506113054 | 55 | 308 | 2.0 | 6.0 | 0.00 | 0.01 | 0.01 | 69 | 1010.2 |
| 20260506112553 | 54 | 356 | 1.0 | 6.0 | 0.00 | 0.01 | 0.01 | 69 | 1010.4 |
| 20260506112053 | 54 | 249 | 1.0 | 6.0 | 0.00 | 0.01 | 0.01 | 69 | 1010.3 |
| 20260506111552 | 54 | 19 | 3.0 | 6.0 | 0.00 | 0.01 | 0.01 | 68 | 1010.3 |
| 20260506111030 | 54 | 267 | 2.0 | 9.0 | 0.00 | 0.01 | 0.01 | 70 | 1010.2 |
| 20260506110531 | 54 | 236 | 2.0 | 9.0 | 0.00 | 0.01 | 0.01 | 69 | 1010.3 |
| 20260506110030 | 54 | 275 | 0.0 | 6.0 | 0.00 | 0.01 | 0.01 | 72 | 1010.2 |
| 20260506105535 | 54 | 285 | 1.0 | 8.0 | 0.00 | 0.01 | 0.01 | 73 | 1010.4 |
| 20260506105030 | 54 | 251 | 0.0 | 8.0 | 0.00 | 0.01 | 0.01 | 73 | 1010.3 |
| 20260506105019 | 54 | 233 | 2.0 | 8.0 | 0.00 | 0.01 | 0.01 | 74 | 1010.2 |
| 20260506104028 | 54 | 16 | 2.0 | 7.0 | 0.00 | 0.01 | 0.01 | 74 | 1010.0 |
| 20260506103531 | 54 | 275 | 0.0 | 7.0 | 0.00 | 0.01 | 0.01 | 76 | 1010.2 |
| 20260506103510 | 54 | 1 | 0.0 | 7.0 | 0.00 | 0.01 | 0.01 | 76 | 1010.1 |
| 20260506102521 | 53 | 349 | 2.0 | 9.0 | 0.00 | 0.01 | 0.01 | 76 | 1010.1 |
| 20260506102020 | 53 | 335 | 5.0 | 9.0 | 0.00 | 0.01 | 0.01 | 78 | 1010.1 |
| 20260506101521 | 53 | 95 | 2.0 | 7.0 | 0.00 | 0.01 | 0.01 | 80 | 1010.2 |
| 20260506101020 | 53 | 300 | 2.0 | 9.0 | 0.00 | 0.01 | 0.01 | 81 | 1010.0 |
| 20260506100519 | 53 | 270 | 1.0 | 9.0 | 0.00 | 0.01 | 0.01 | 80 | 1010.0 |
| 20260506100020 | 53 | 29 | 2.0 | 7.0 | 0.00 | 0.01 | 0.01 | 81 | 1009.9 |
| 20260506095520 | 53 | 315 | 2.0 | 7.0 | 0.00 | 0.01 | 0.01 | 80 | 1009.9 |
| 20260506095020 | 53 | 244 | 0.0 | 7.0 | 0.00 | 0.01 | 0.01 | 81 | 1009.9 |
| 20260506095013 | 53 | 344 | 4.0 | 10.0 | 0.00 | 0.01 | 0.01 | 80 | 1009.9 |
| 20260506094019 | 53 | 67 | 3.0 | 10.0 | 0.00 | 0.01 | 0.01 | 79 | 1009.8 |
| 20260506093520 | 53 | 2 | 2.0 | 8.0 | 0.00 | 0.01 | 0.01 | 80 | 1009.8 |
| 20260506093507 | 53 | 357 | 5.0 | 8.0 | 0.00 | 0.01 | 0.01 | 79 | 1009.7 |
| 20260506092520 | 53 | 287 | 2.0 | 7.0 | 0.00 | 0.02 | 0.01 | 81 | 1009.7 |
| 20260506092020 | 53 | 284 | 1.0 | 7.0 | 0.00 | 0.02 | 0.01 | 81 | 1009.7 |
| 20260506091519 | 53 | 331 | 2.0 | 8.0 | 0.00 | 0.02 | 0.01 | 81 | 1009.6 |
| 20260506091019 | 53 | 12 | 2.0 | 8.0 | 0.00 | 0.02 | 0.01 | 81 | 1009.5 |
| 20260506090520 | 53 | 278 | 3.0 | 6.0 | 0.00 | 0.02 | 0.01 | 82 | 1009.5 |
| 20260506090020 | 53 | 281 | 2.0 | 8.0 | 0.00 | 0.02 | 0.01 | 82 | 1009.6 |
| 20260506085520 | 53 | 300 | 4.0 | 8.0 | 0.00 | 0.02 | 0.01 | 83 | 1009.5 |
| 20260506085020 | 53 | 303 | 1.0 | 4.0 | 0.00 | 0.02 | 0.01 | 84 | 1009.6 |
| 20260506084502 | 52 | 356 | 2.0 | 6.0 | 0.00 | 0.02 | 0.01 | 84 | 1009.5 |
| 20260506084234 | 52 | 349 | 3.0 | 9.0 | 0.00 | 0.02 | 0.01 | 85 | 1009.4 |
| 20260506083736 | 52 | 356 | 6.0 | 9.0 | 0.00 | 0.02 | 0.01 | 85 | 1009.5 |
| 20260506083232 | 52 | 284 | 2.0 | 6.0 | 0.00 | 0.02 | 0.01 | 86 | 1009.5 |
| 20260506082450 | 52 | 292 | 3.0 | 6.0 | 0.00 | 0.02 | 0.01 | 86 | 1009.4 |
| 20260506081952 | 51 | 250 | 1.0 | 6.0 | 0.00 | 0.02 | 0.01 | 87 | 1009.5 |
| 20260506081447 | 52 | 353 | 4.0 | 6.0 | 0.00 | 0.02 | 0.01 | 87 | 1009.3 |
| 20260506080951 | 51 | 353 | 1.0 | 3.0 | 0.00 | 0.02 | 0.01 | 87 | 1009.4 |
| 20260506080447 | 51 | 269 | 0.0 | 3.0 | 0.00 | 0.02 | 0.01 | 88 | 1009.3 |
| 20260506073452 | 50 | 325 | 4.0 | 8.0 | 0.00 | 0.02 | 0.01 | 90 | 1009.5 |
| 20260506072947 | 50 | 285 | 1.0 | 8.0 | 0.00 | 0.02 | 0.01 | 91 | 1009.3 |
| 20260506072447 | 50 | 277 | 1.0 | 8.0 | 0.00 | 0.02 | 0.01 | 91 | 1009.5 |
| 20260506071947 | 49 | 298 | 4.0 | 7.0 | 0.00 | 0.02 | 0.01 | 91 | 1009.5 |
| 20260506071447 | 49 | 257 | 1.0 | 8.0 | 0.00 | 0.02 | 0.01 | 92 | 1009.4 |
| 20260506071208 | 49 | 287 | 3.0 | 8.0 | 0.00 | 0.02 | 0.01 | 92 | 1009.3 |
| 20260506070446 | 49 | 241 | 1.0 | 4.0 | 0.00 | 0.02 | 0.01 | 92 | 1009.4 |
| 20260506062444 | 48 | 294 | 2.0 | 4.0 | 0.01 | 0.02 | 0.01 | 96 | 1009.1 |
| 20260506061947 | 48 | 260 | 1.0 | 4.0 | 0.01 | 0.02 | 0.01 | 96 | 1009.1 |
| 20260506061448 | 48 | 269 | 1.0 | 3.0 | 0.01 | 0.02 | 0.01 | 97 | 1009.2 |
| 20260506060945 | 48 | 314 | 2.0 | 3.0 | 0.01 | 0.02 | 0.01 | 97 | 1009.0 |
| 20260506060712 | 48 | 259 | 1.0 | 3.0 | 0.01 | 0.02 | 0.01 | 97 | 1009.1 |
| 20260506060209 | 48 | 248 | 2.0 | 3.0 | 0.01 | 0.02 | 0.01 | 97 | 1009.1 |
| 20260506050944 | 47 | 358 | 1.0 | 4.0 | 0.00 | 0.01 | 0.00 | 97 | 1009.1 |
| 20260506050939 | 47 | 274 | 0.0 | 4.0 | 0.00 | 0.01 | 0.00 | 97 | 1009.1 |
| 20260506044429 | 48 | 344 | 2.0 | 4.0 | 0.00 | 0.01 | 0.00 | 96 | 1009.0 |
| 20260506043928 | 48 | 286 | 1.0 | 3.0 | 0.00 | 0.01 | 0.00 | 96 | 1009.0 |
| 20260506043656 | 48 | 334 | 1.0 | 7.0 | 0.00 | 0.01 | 0.00 | 96 | 1009.0 |
| 20260506043157 | 48 | 289 | 1.0 | 7.0 | 0.00 | 0.01 | 0.00 | 96 | 1008.9 |
| 20260506042430 | 47 | 270 | 1.0 | 3.0 | 0.00 | 0.01 | 0.00 | 96 | 1008.8 |
| 20260506041916 | 47 | 269 | 1.0 | 3.0 | 0.00 | 0.02 | 0.00 | 96 | 1009.0 |
| 20260506041640 | 47 | 258 | 1.0 | 6.0 | 0.00 | 0.02 | 0.00 | 96 | 1008.8 |
| 20260506040913 | 47 | 271 | 1.0 | 6.0 | 0.00 | 0.04 | 0.00 | 96 | 1008.8 |
| 20260506040411 | 47 | 341 | 2.0 | 4.0 | 0.00 | 0.04 | 0.00 | 96 | 1008.7 |
| 20260506035914 | 47 | 265 | 2.0 | 4.0 | 0.00 | 0.04 | 0.00 | 96 | 1009.0 |
| 20260506035413 | 47 | 309 | 2.0 | 3.0 | 0.00 | 0.04 | 0.00 | 96 | 1008.9 |
| 20260506034912 | 47 | 263 | 2.0 | 4.0 | 0.00 | 0.04 | 0.00 | 96 | 1009.0 |
| 20260506034413 | 47 | 258 | 1.0 | 4.0 | 0.00 | 0.04 | 0.00 | 97 | 1009.3 |
| 20260506034144 | 47 | 346 | 1.0 | 6.0 | 0.00 | 0.04 | 0.00 | 97 | 1009.0 |
| 20260506033412 | 47 | 284 | 2.0 | 6.0 | 0.00 | 0.04 | 0.00 | 97 | 1009.1 |
| 20260506033135 | 47 | 271 | 1.0 | 6.0 | 0.00 | 0.04 | 0.00 | 97 | 1009.1 |
| 20260506032633 | 47 | 10 | 4.0 | 6.0 | 0.00 | 0.04 | 0.00 | 97 | 1009.0 |
| 20260506031912 | 47 | 272 | 1.0 | 4.0 | 0.00 | 0.04 | 0.00 | 97 | 1008.9 |
| 20260506031411 | 47 | 277 | 3.0 | 7.0 | 0.00 | 0.04 | 0.00 | 97 | 1009.1 |
| 20260506030911 | 47 | 278 | 3.0 | 7.0 | 0.00 | 0.04 | 0.00 | 98 | 1009.0 |
| 20260506030411 | 47 | 341 | 3.0 | 4.0 | 0.00 | 0.04 | 0.00 | 98 | 1009.1 |
| 20260506025911 | 47 | 311 | 2.0 | 6.0 | 0.00 | 0.04 | 0.00 | 98 | 1009.0 |
| 20260506025410 | 47 | 273 | 2.0 | 6.0 | 0.00 | 0.04 | 0.00 | 98 | 1009.3 |
| 20260506024910 | 47 | 8 | 3.0 | 4.0 | 0.00 | 0.04 | 0.00 | 98 | 1009.3 |
| 20260506024410 | 47 | 266 | 0.0 | 4.0 | 0.00 | 0.04 | 0.00 | 98 | 1009.3 |
| 20260506023911 | 47 | 315 | 2.0 | 4.0 | 0.00 | 0.04 | 0.00 | 98 | 1009.4 |
| 20260506023410 | 47 | 318 | 1.0 | 4.0 | 0.00 | 0.04 | 0.00 | 98 | 1009.3 |
| 20260506022910 | 47 | 258 | 1.0 | 4.0 | 0.00 | 0.04 | 0.00 | 98 | 1009.3 |
| 20260506022410 | 47 | 285 | 1.0 | 4.0 | 0.00 | 0.04 | 0.00 | 98 | 1009.4 |
| 20260506021910 | 47 | 298 | 1.0 | 3.0 | 0.00 | 0.04 | 0.00 | 98 | 1009.2 |
| 20260506021408 | 47 | 241 | 1.0 | 3.0 | 0.00 | 0.04 | 0.00 | 97 | 1009.4 |
| 20260506020911 | 47 | 293 | 0.0 | 6.0 | 0.00 | 0.04 | 0.00 | 97 | 1009.4 |
| 20260506020410 | 47 | 316 | 1.0 | 6.0 | 0.00 | 0.04 | 0.00 | 97 | 1009.3 |
| 20260506015910 | 47 | 352 | 1.0 | 6.0 | 0.00 | 0.04 | 0.00 | 97 | 1009.3 |
| 20260506015410 | 47 | 40 | 1.0 | 6.0 | 0.00 | 0.04 | 0.00 | 97 | 1009.7 |
| 20260506014905 | 47 | 267 | 0.0 | 7.0 | 0.00 | 0.04 | 0.00 | 96 | 1009.4 |
| 20260506014849 | 48 | 292 | 1.0 | 7.0 | 0.00 | 0.04 | 0.00 | 96 | 1009.3 |
| 20260506014129 | 48 | 267 | 0.0 | 6.0 | 0.00 | 0.04 | 0.00 | 95 | 1009.5 |
| 20260506013402 | 48 | 257 | 3.0 | 9.0 | 0.00 | 0.04 | 0.00 | 94 | 1009.5 |
| 20260506013127 | 48 | 283 | 3.0 | 9.0 | 0.00 | 0.04 | 0.00 | 93 | 1009.4 |
| 20260506012625 | 48 | 346 | 1.0 | 6.0 | 0.00 | 0.04 | 0.00 | 92 | 1009.4 |
| 20260506012126 | 49 | 271 | 1.0 | 4.0 | 0.00 | 0.04 | 0.00 | 91 | 1009.7 |
| 20260506011401 | 49 | 342 | 1.0 | 6.0 | 0.00 | 0.04 | 0.00 | 91 | 1009.5 |
| 20260506010901 | 49 | 290 | 1.0 | 7.0 | 0.00 | 0.04 | 0.00 | 90 | 1009.4 |
| 20260506010632 | 49 | 324 | 2.0 | 7.0 | 0.00 | 0.04 | 0.00 | 90 | 1009.6 |
| 20260506005901 | 49 | 333 | 1.0 | 7.0 | 0.00 | 0.04 | 0.00 | 90 | 1009.7 |
| 20260506005400 | 49 | 292 | 1.0 | 3.0 | 0.00 | 0.04 | 0.00 | 89 | 1009.8 |
| 20260506004900 | 49 | 290 | 0.0 | 4.0 | 0.00 | 0.04 | 0.00 | 89 | 1009.8 |
| 20260506004403 | 49 | 325 | 2.0 | 8.0 | 0.00 | 0.04 | 0.00 | 89 | 1009.8 |
| 20260506003902 | 49 | 39 | 2.0 | 8.0 | 0.00 | 0.04 | 0.00 | 89 | 1009.7 |
| 20260506003402 | 49 | 349 | 2.0 | 3.0 | 0.00 | 0.04 | 0.00 | 89 | 1009.8 |
| 20260506002842 | 49 | 276 | 0.0 | 4.0 | 0.00 | 0.04 | 0.00 | 89 | 1009.9 |
| 20260506002342 | 49 | 292 | 1.0 | 6.0 | 0.00 | 0.04 | 0.00 | 89 | 1009.9 |
| 20260506002102 | 49 | 314 | 1.0 | 7.0 | 0.00 | 0.04 | 0.00 | 89 | 1009.9 |
| 20260506001337 | 49 | 349 | 2.0 | 7.0 | 0.00 | 0.04 | 0.00 | 88 | 1009.8 |
| 20260506000840 | 49 | 334 | 4.0 | 6.0 | 0.00 | 0.04 | 0.00 | 88 | 1009.8 |
| 20260506000337 | 49 | 275 | 0.0 | 4.0 | 0.00 | 0.04 | 0.00 | 88 | 1010.0 |
| 20260506000104 | 49 | 261 | 0.0 | 3.0 | 0.00 | 0.04 | 0.00 | 88 | 1010.1 |
| 20260505235336 | 49 | 343 | 1.0 | 3.0 | 0.00 | 0.04 | 0.00 | 88 | 1010.1 |
| 20260505234835 | 49 | 278 | 0.0 | 6.0 | 0.00 | 0.05 | 0.00 | 88 | 1010.0 |
| 20260505234335 | 49 | 326 | 3.0 | 6.0 | 0.00 | 0.05 | 0.00 | 88 | 1010.2 |
| 20260505233835 | 49 | 303 | 2.0 | 6.0 | 0.00 | 0.05 | 0.00 | 88 | 1010.2 |
| 20260505233334 | 49 | 347 | 3.0 | 6.0 | 0.00 | 0.05 | 0.00 | 88 | 1010.1 |
| 20260505232835 | 49 | 342 | 1.0 | 8.0 | 0.00 | 0.05 | 0.00 | 88 | 1010.1 |
| 20260505232335 | 49 | 19 | 6.0 | 8.0 | 0.00 | 0.06 | 0.00 | 88 | 1010.3 |
| 20260505232100 | 49 | 212 | 2.0 | 7.0 | 0.00 | 0.06 | 0.00 | 88 | 1010.3 |
| 20260505231335 | 49 | 335 | 1.0 | 7.0 | 0.00 | 0.07 | 0.00 | 88 | 1010.2 |
| 20260505230835 | 50 | 288 | 2.0 | 7.0 | 0.00 | 0.07 | 0.00 | 88 | 1010.3 |
| 20260505230337 | 50 | 272 | 3.0 | 6.0 | 0.00 | 0.07 | 0.00 | 88 | 1010.4 |
| 20260505225834 | 50 | 302 | 1.0 | 7.0 | 0.00 | 0.07 | 0.00 | 88 | 1010.4 |
| 20260505225330 | 50 | 266 | 2.0 | 7.0 | 0.00 | 0.08 | 0.00 | 88 | 1010.5 |
| 20260505225053 | 50 | 264 | 0.0 | 7.0 | 0.00 | 0.08 | 0.00 | 88 | 1010.5 |
| 20260505224329 | 50 | 348 | 4.0 | 7.0 | 0.00 | 0.09 | 0.00 | 88 | 1010.5 |
| 20260505223829 | 50 | 22 | 2.0 | 7.0 | 0.00 | 0.11 | 0.00 | 88 | 1010.4 |
| 20260505223329 | 50 | 309 | 1.0 | 9.0 | 0.00 | 0.13 | 0.00 | 89 | 1010.4 |
| 20260505222829 | 50 | 271 | 1.0 | 9.0 | 0.00 | 0.14 | 0.00 | 89 | 1010.6 |
| 20260505222330 | 50 | 288 | 2.0 | 4.0 | 0.00 | 0.16 | 0.00 | 89 | 1010.6 |
| 20260505221831 | 50 | 262 | 1.0 | 7.0 | 0.00 | 0.19 | 0.00 | 89 | 1010.5 |
| 20260505221330 | 50 | 2 | 3.0 | 7.0 | 0.00 | 0.23 | 0.00 | 89 | 1010.5 |
| 20260505220829 | 50 | 290 | 2.0 | 7.0 | 0.00 | 0.28 | 0.00 | 88 | 1010.6 |
| 20260505220330 | 50 | 299 | 1.0 | 6.0 | 0.00 | 0.29 | 0.00 | 89 | 1010.7 |
| 20260505215832 | 50 | 263 | 1.0 | 6.0 | 0.00 | 0.29 | 0.29 | 89 | 1010.7 |
| 20260505215600 | 50 | 352 | 4.0 | 9.0 | 0.00 | 0.29 | 0.29 | 89 | 1010.7 |
| 20260505214831 | 50 | 264 | 1.0 | 9.0 | 0.00 | 0.29 | 0.29 | 89 | 1010.7 |
| 20260505214601 | 50 | 355 | 0.0 | 6.0 | 0.00 | 0.29 | 0.29 | 89 | 1011.0 |
| 20260505213831 | 50 | 75 | 1.0 | 6.0 | 0.00 | 0.29 | 0.29 | 90 | 1010.8 |
| 20260505213331 | 50 | 358 | 1.0 | 7.0 | 0.00 | 0.30 | 0.29 | 90 | 1010.8 |
| 20260505212831 | 50 | 336 | 2.0 | 7.0 | 0.00 | 0.32 | 0.29 | 90 | 1010.9 |
| 20260505212600 | 50 | 22 | 2.0 | 6.0 | 0.00 | 0.32 | 0.29 | 90 | 1010.9 |
| 20260505211831 | 50 | 339 | 2.0 | 6.0 | 0.00 | 0.33 | 0.29 | 90 | 1010.9 |
| 20260505211331 | 50 | 285 | 1.0 | 6.0 | 0.00 | 0.33 | 0.29 | 90 | 1010.9 |
| 20260505210831 | 51 | 341 | 0.0 | 6.0 | 0.00 | 0.33 | 0.29 | 90 | 1011.0 |
| 20260505210331 | 51 | 72 | 0.0 | 7.0 | 0.00 | 0.33 | 0.29 | 90 | 1010.9 |
| 20260505210058 | 51 | 313 | 2.0 | 7.0 | 0.00 | 0.33 | 0.29 | 89 | 1011.0 |
| 20260505205329 | 51 | 354 | 2.0 | 10.0 | 0.00 | 0.33 | 0.29 | 89 | 1010.9 |
| 20260505204829 | 51 | 345 | 2.0 | 10.0 | 0.00 | 0.33 | 0.29 | 89 | 1010.8 |
| 20260505204328 | 51 | 252 | 1.0 | 6.0 | 0.00 | 0.33 | 0.29 | 89 | 1011.1 |
| 20260505203831 | 51 | 263 | 3.0 | 6.0 | 0.00 | 0.33 | 0.29 | 89 | 1011.1 |
| 20260505203559 | 51 | 279 | 2.0 | 6.0 | 0.00 | 0.33 | 0.29 | 90 | 1011.0 |
| 20260505202828 | 51 | 266 | 1.0 | 6.0 | 0.00 | 0.33 | 0.29 | 90 | 1011.0 |
| 20260505202333 | 51 | 294 | 0.0 | 3.0 | 0.00 | 0.33 | 0.29 | 90 | 1011.1 |
| 20260505201832 | 51 | 303 | 1.0 | 3.0 | 0.00 | 0.33 | 0.29 | 89 | 1011.0 |
| 20260505201331 | 51 | 328 | 2.0 | 8.0 | 0.00 | 0.33 | 0.29 | 89 | 1010.9 |
| 20260505201048 | 51 | 320 | 1.0 | 8.0 | 0.00 | 0.33 | 0.29 | 89 | 1010.7 |
| 20260505200303 | 51 | 278 | 1.0 | 9.0 | 0.00 | 0.33 | 0.29 | 89 | 1011.1 |
| 20260505195801 | 51 | 16 | 2.0 | 9.0 | 0.00 | 0.34 | 0.29 | 89 | 1011.0 |
| 20260505195308 | 51 | 5 | 1.0 | 4.0 | 0.00 | 0.35 | 0.29 | 89 | 1011.0 |
| 20260505195025 | 51 | 97 | 1.0 | 3.0 | 0.00 | 0.36 | 0.29 | 89 | 1010.9 |